Weather History for Lawrence, MA

Change the Weather History Date:

Tuesday, July 16, 2013

  Actual Average Record
Temperature  
Mean Temperature 81 °F -  
Max Temperature 93 °F 83 °F 96 °F (1968)
Min Temperature 71 °F 62 °F 50 °F (1930)
Cooling Degree Days 16    
Growing Degree Days 31 (Base 50)    
Moisture  
Dew Point 66 °F    
Average Humidity 61    
Maximum Humidity 76    
Minimum Humidity 42    
Precipitation  
Precipitation 0.00 in - - ()
Sea Level Pressure  
Sea Level Pressure 30.15 in    
Wind  
Wind Speed 2 mph (NNW)    
Max Wind Speed 9 mph    
Max Gust Speed -    
Visibility 10 miles    
Events      
Averages and records for this station are not official NWS values.
T = Trace of Precipitation, MM = Missing Value Source: NWS Daily Summary

Daily Weather History Graph

Daily Weather History Graph

Search for Another Location

Airport:

Trip Planner

Search our weather history database for the weather conditions in past years. The results will help you decide how hot, cold, wet, or windy it might be!

Date:

Astronomy

Jul. 16, 2013 Rise Set
Actual Time 5:20 AM EDT 8:19 PM EDT
Civil Twilight 4:47 AM EDT 8:53 PM EDT
Nautical Twilight 4:04 AM EDT 9:36 PM EDT
Astronomical Twilight 3:13 AM EDT 10:26 PM EDT
Moon 1:54 PM EDT (7/16) No Moon Set
Length of Visible Light 16h 06m
Length of Day
14h 58m
First Quarter, 56% of the Moon is Illuminated
Jul 16
First Quarter
Jul 22
Full
Jul 29
Last Quarter
Aug 6
New
Aug 14
First Quarter

Hourly Weather History & Observations

Time (EDT) Temp. Heat Index Dew Point Humidity Pressure Visibility Wind Dir Wind Speed Gust Speed Precip Events Conditions
12:54 AM 75.0 °F - 66.9 °F 76% 30.14 in 10.0 mi Calm Calm - N/A   Clear
1:54 AM 77.0 °F - 64.0 °F 64% 30.14 in 10.0 mi Calm Calm - N/A   Clear
2:54 AM 75.0 °F - 63.0 °F 66% 30.14 in 10.0 mi NNW 4.6 mph - N/A   Clear
3:54 AM 73.9 °F - 63.0 °F 68% 30.13 in 10.0 mi West 3.5 mph - N/A   Clear
4:54 AM 71.1 °F - 63.0 °F 75% 30.14 in 10.0 mi Calm Calm - N/A   Clear
5:54 AM 72.0 °F - 64.0 °F 76% 30.15 in 10.0 mi Calm Calm - N/A   Clear
6:54 AM 75.0 °F - 64.9 °F 71% 30.16 in 10.0 mi Calm Calm - N/A   Clear
7:34 AM 78.8 °F - 66.2 °F 65% 30.16 in 10.0 mi Calm Calm - N/A   Partly Cloudy
7:54 AM 79.0 °F - 66.9 °F 66% 30.16 in 10.0 mi Calm Calm - N/A   Clear
8:54 AM 82.9 °F 85.8 °F 68.0 °F 60% 30.16 in 10.0 mi NW 3.5 mph - N/A   Clear
9:54 AM 84.9 °F 88.2 °F 68.0 °F 57% 30.16 in 10.0 mi WNW 4.6 mph - N/A   Clear
10:54 AM 87.1 °F 91.3 °F 69.1 °F 55% 30.15 in 10.0 mi Calm Calm - N/A   Clear
11:54 AM 89.1 °F 93.7 °F 69.1 °F 52% 30.15 in 10.0 mi North 8.1 mph - N/A   Clear
12:54 PM 90.0 °F 92.8 °F 66.9 °F 46% 30.15 in 10.0 mi NNW 6.9 mph - N/A   Clear
1:54 PM 91.0 °F 93.8 °F 66.0 °F 44% 30.13 in 10.0 mi NW 9.2 mph - N/A   Partly Cloudy
2:54 PM 91.9 °F 95.4 °F 66.9 °F 44% 30.13 in 10.0 mi NW 6.9 mph - N/A   Clear
3:54 PM 91.9 °F 94.5 °F 66.0 °F 42% 30.12 in 10.0 mi NW 4.6 mph - N/A   Clear
4:54 PM 91.0 °F 96.6 °F 70.0 °F 50% 30.13 in 10.0 mi ENE 8.1 mph - N/A   Mostly Cloudy
5:54 PM 86.0 °F 90.7 °F 70.0 °F 59% 30.13 in 10.0 mi East 5.8 mph - N/A   Mostly Cloudy
6:54 PM 82.9 °F 85.0 °F 66.0 °F 56% 30.14 in 10.0 mi Calm Calm - N/A   Clear
7:54 PM 81.0 °F 82.7 °F 64.9 °F 58% 30.16 in 10.0 mi ESE 5.8 mph - N/A   Scattered Clouds
8:54 PM 79.0 °F - 64.9 °F 62% 30.17 in 10.0 mi South 3.5 mph - N/A   Overcast
9:54 PM 78.1 °F - 66.0 °F 66% 30.17 in 10.0 mi Calm Calm - N/A   Clear
10:54 PM 75.9 °F - 66.0 °F 71% 30.18 in 10.0 mi Calm Calm - N/A   Clear
11:54 PM 75.0 °F - 64.9 °F 71% 30.18 in 10.0 mi Calm Calm - N/A   Clear